Location: Rio Negrinho
(26.2394°S, 49.4999°W)
Time: 18:05:08
(UTC+00:00)

Hubble Space Telescope - Pass Details

Date: 01 August 2021
Orbit: 535 x 539 km, 28.5° (Epoch: 22 September)

Event Time Altitude Azimuth Distance (km) Brightness Sun altitude
Exits shadow 08:50:20 28° 255° (WSW) 1,031 1.6 -15.2°
Maximum altitude 08:52:22 63° 182° (S) 604 0.9 -14.8°
Drops below altitude 10° 08:56:30 10° 100° (E) 1,796 4.5 -13.9°
Sets 08:58:47 0° 97° (E) 2,688 5.8 -13.4°
